Hourly Weather Roundup
Issued by NWS Central Illinois

Home | Current Version | Previous Version | Text Only | Print | Product List | Glossary On
Versions: 1 2 3 4 5 6 7 8 9 10 11 12 13 14 15 16 17 18 19 20 21 22 23 24 25 26 27 28 29 30 31 32 33 34 35 36 37 38 39 40 41 42 43 44 45 46 47 48 49 50
000
NZUS43 KILX 250410
HWRILX

AREA WEATHER ROUNDUP
NATIONAL WEATHER SERVICE, LINCOLN IL
1100 PM CDT SUN MAY 24 2015


CITY           SKY/WX    TMP DP  RH WIND       PRES   REMARKS
BLOOMINGTON    MOCLDY    76  65  68 S22G28    29.93F
CHAMPAIGN      MOCLDY    76  62  62 S18       29.96F
DANVILLE       PTCLDY    74  62  65 S13       29.96F
DECATUR        FAIR      77  64  64 S17G25    29.94S
EFFINGHAM      CLOUDY    76  62  61 SE12G24   29.99S
FLORA          PTCLDY    75  65  72 S21G32    30.00S
GALESBURG      LGT RAIN  66  65  96 S9        29.88F
JACKSONVILLE   LGT RAIN  72  68  87 CALM      29.89S
LACON          CLOUDY    76  62  63 S15G22    29.87F
LAWRENCEVILLE  MOCLDY    76  63  64 S15G21    30.02F
LITCHFIELD     TSTM      67  64  91 S30G40    29.95R
$$


CITY           SKY/WX    TMP DP  RH WIND       PRES   REMARKS
LINCOLN        CLOUDY    78  64  60 S14G22    29.88S HX  80
MACOMB         CLOUDY    67  66  97 S7        29.88F
MATTOON        PTCLDY    75  63  66 S16G26    29.96F
MT CARMEL AP   PTCLDY    79  61  53 S14G20    30.01F HX  80
OLNEY-NOBLE AP MOCLDY    73  64  73 SE10      30.00S
PARIS          PTCLDY    76  63  64 S17G23    30.01S
PEORIA         CLOUDY    72  66  81 W12       29.90R
PONTIAC        MOCLDY    77  64  64 S17G24    29.93S
RANTOUL        PTCLDY    76  63  63 S15       29.96S
ROBINSON       MOCLDY    75  63  64 S12       30.02F
SPRINGFIELD    LGT RAIN  77  66  68 S24G33    29.90S
TAYLORVILLE    CLOUDY    75  64  69 SE16      29.92S
$$

...REGIONAL REPORTS...


CITY           SKY/WX    TMP DP  RH WIND       PRES   REMARKS
CHICAGO O`HARE MOCLDY    66  62  87 S8        29.91F
KANKAKEE       MOCLDY    75  62  64 SE14G22   29.95F
MOLINE         CLOUDY    69  65  86 S10       29.85S
MOUNT VERNON   CLOUDY    68  63  83 S8        30.00F
PITTSFIELD     LGT RAIN  68  65  91 E9        29.86F
QUINCY         LGT RAIN  67  66  97 SE5       29.83F FOG
ROCKFORD       LGT RAIN  68  64  87 SW3       29.91R FOG
$$


CITY           SKY/WX    TMP DP  RH WIND       PRES   REMARKS
BURLINGTON     CLOUDY    68  66  93 S10       29.84S
CEDAR RAPIDS   CLOUDY    67  67 100 S10       29.79F
DES MOINES     LGT RAIN  67  63  87 SW6       29.79S
KIRKSVILLE     LGT RAIN  64  64 100 CALM      29.84S
OTTUMWA        LGT RAIN  65  64  97 S8        29.81S
ST LOUIS       LGT RAIN  72  66  83 SE12      29.89F
$$


CITY           SKY/WX    TMP DP  RH WIND       PRES   REMARKS
TERRE HAUTE    MOCLDY    74  61  63 S12       30.02S
EVANSVILLE     MOCLDY    75  64  68 S8        30.04S
INDIANAPOLIS   MOCLDY    73  58  59 SE12      30.04S
LAFAYETTE      PTCLDY    72  60  66 S8        30.00F
MADISON        CLOUDY    59  57  93 SE3       29.89S FOG
MILWAUKEE      LGT RAIN  57  53  86 W6        29.94R
$$




USA.gov is the U.S. government's official web portal to all federal, state and local government web resources and services.